www.pogodaiklimat.ru

Погода и климат >> Архив погоды >> Монголия >> Амарбуйантайан


ПОГОДА в Амарбуйантайане

  • Прогноз погоды в Амарбуйантайане
  • Монитор погоды в Амарбуйантайане

АРХИВ ПОГОДЫ в Амарбуйантайане

Время (UTC), дата Ветер
(напр.,м/с)
 
Видим.   Явления Облачность Т
(С)
Тd
(С)
f
(%)
Тe
(С)
Тes
(С)
Комфортность P
(гПа)
Po
(гПа)
Тmin
(С)
Tmax
(С)
R
(мм)
R24
(мм)
S
(см)
18 11.08 СВ 4 50 км 3/0 2000 м
[Ac lent]
+12.4 +2.8 52 +11 +11 1013.5 777.7
21 11.08 СЗ 3 50 км ясно +9.7 +0.9 54 +8 +8 1015.9 777.6
00 12.08 СЗ 4 50 км ясно +10.6 +1.1 52 +8 +10 1016.1 778.4 +8.1
03 12.08 С 2 50 км ясно +16.3 +2.0 38 +17 +28 1010.9 778.5
06 12.08 Ю 3 50 км ясно +19.9 +3.3 33 +21 +34 комфорт 1006.3 777.4
09 12.08 З 6 50 км 1/1 1000 м
[Cu hum]
+21.3 -1.0 22 +21 +23 комфорт 1003.9 776.5
12 12.08 ЮЗ 5 50 км 3/0
[Ci]
+20.2 -4.2 19 +20 +20 1004.7 776.4 +22.1
15 12.08 ЮЗ 3 50 км ясно +14.9 -5.0 25 +14 +14 1010.8 777.4
18 12.08 З 1 50 км ясно +12.1 -4.4 31 +13 +13 1012.9 777.0
21 12.08 З 2 50 км ясно +10.5 -2.1 41 +10 +10 1013.9 776.6
00 13.08 штиль 0 50 км ясно +14.2 +2.5 45 +14 +16 1011.1 777.1 +8.8
03 13.08 ЮЗ 6 50 км ясно +20.5 +1.4 28 +20 +25 1006.3 777.8
06 13.08 З 9 50 км 3/0
[Ci]
+22.3 -1.6 20 +21 +23 комфорт 1003.8 777.1
09 13.08 З 8 50 км 3/0
[Ci]
+23.3 -6.0 14 +21 +22 комфорт 1001.8 776.2
12 13.08 З 8 50 км ясно +22.3 -2.6 19 +21 +21 комфорт 1002.2 775.9 +24.0
15 13.08 ЮЗ 5 50 км ясно +16.3 -6.6 20 +16 +16 1008.1 776.3
18 13.08 З 2 50 км ясно +13.6 -7.3 23 +13 +13 1011.1 776.7
21 13.08 З 2 50 км ясно +11.7 -4.1 33 +11 +11 1012.7 776.6
00 14.08 С 2 50 км ясно +14.5 -1.2 34 +14 +16 1010.8 777.1 +11.4
03 14.08 С 5 50 км ясно +19.5 -1.2 25 +19 +25 1007.0 777.7
06 14.08 С 4 50 км ясно +22.1 -1.3 21 +21 +32 комфорт 1003.6 776.8
09 14.08 СЗ 2 50 км ясно +23.6 -1.9 18 +22 +29 комфорт 1000.9 775.7
12 14.08 СЗ 3 50 км 3/0 2000 м
[Ac cast Ci]
+23.4 -0.0 21 +22 +22 комфорт 1000.5 775.3 +25.2
15 14.08 З 2 н/о 8/0 2000 м
[Ac lent Ci fib]
+18.2 -0.2 29 +19 +19 1006.6 776.5
18 14.08 С 2 н/о 8/0 2000 м
[Ac trans Ci]
+15.3 -0.5 34 +15 +15 1009.5 776.7
21 14.08 С 8 н/о 8/0 2000 м
[Ac lent Cs]
+14.3 -1.0 35 +12 +12 1010.6 776.8
00 15.08 С 10 50 км 8/0 2000 м
[Ac cast Cc]
+13.4 +1.3 44 +11 +11 1012.1 777.3 +12.0
03 15.08 СВ 9 50 км 8/0 2000 м
[Ac lent Ci]
+17.1 +2.8 38 +16 +17 1009.2 777.7
06 15.08 С 6 50 км 6/0 2000 м
[Ac cast Ci]
+19.3 +3.8 36 +19 +24 1007.1 777.6
09 15.08 СВ 5 50 км 8/0 2000 м
[Ac lent Cc]
+20.7 +0.6 26 +21 +23 комфорт 1005.2 777.1
12 15.08 СВ 5 50 км 8/0 2000 м
[Ac trans Ci]
+18.4 +0.4 30 +18 +18 1007.2 777.1 +20.9
15 15.08 В 6 н/о 6/0 2000 м
[Ac trans Ci fib]
+13.2 +0.8 43 +11 +11 1013.2 778.0
18 15.08 ЮВ 4 н/о 9/0 2000 м
[Ac lent Cs]
+11.2 +1.0 49 +9 +9 1015.9 778.7
21 15.08 ЮВ 3 н/о 9/0 2000 м
[Ac lent Cs]
+11.4 +2.2 53 +10 +10 1015.8 778.7
00 16.08 ЮЗ 3 50 км 9/3 600 м
[Sc Ac und Ci]
+12.8 +2.9 51 +12 +12 1015.2 779.3 +9.5
03 16.08 Ю 7 50 км 9/0 2000 м
[Ac und Ci fib]
+15.9 +1.2 37 +15 +16 1012.1 779.1
06 16.08 ЮЗ 5 50 км 8/0 2000 м
[Ac cast Ci]
+18.9 +3.5 36 +19 +24 1008.3 778.3
09 16.08 З 6 50 км 9/5 600 м
[Sc Ac und Ci fib]
+17.6 +3.5 39 +17 +18 1009.2 778.1
12 16.08 З 5 50 км 8/5 600 м
[Sc Ac cuf Ci fib]
+17.7 +4.6 42 +17 +17 1008.5 777.6 +19.8
15 16.08 Ю 6 50 км 3/0 2000 м
[Ac lent Ci fib]
+15.8 +2.6 41 +15 +15 1010.2 777.6
18 16.08 Ю 8 50 км 3/3 600 м
[Sc]
+14.3 +1.4 41 +12 +12 1011.2 777.3
21 16.08 Ю 7 50 км 3/0 2000 м
[Ac lent]
+13.5 +2.4 47 +11 +11 1011.6 777.0
00 17.08 СЗ 3 50 км 1/0 2000 м
[Ac lent]
+14.0 +3.6 49 +13 +14 1011.6 777.4 +12.7
03 17.08 СВ 1 50 км 3/1 600 м
[Cu hum Ci]
+20.9 +9.2 47 +24 +35 комфорт 1004.9 777.0
06 17.08 СВ 3 50 км 6/4 1000 м
[Cu med, cong Ci fib]
+22.8 +6.9 36 +24 +31 комфорт 1001.7 775.8
09 17.08 З 3 50 км 5/3 1000 м
[Cu med, cong Ci]
+23.1 +4.6 30 +23 +27 комфорт 1000.1 774.8
12 17.08 Ю 2 50 км 8/5 600 м
[Sc Ac cuf Ci fib]
+22.0 +6.2 36 +23 +23 комфорт 1001.2 774.9 +24.1
15 17.08 Ю 5 н/о 6/0 2000 м
[Ac trans Ci fib]
+19.0 +2.9 34 +19 +19 1005.3 776.0
18 17.08 Ю 4 н/о 9/0 2000 м
[Ac lent Cs]
+18.1 +3.0 37 +18 +18 1005.9 775.9
21 17.08 Ю 3 н/о 9/0 2000 м
[Ac lent Cs]
+15.1 +3.5 46 +15 +15 1009.4 776.2
00 18.08 С 2 50 км 8/3 600 м
[Sc Ac cast Cc]
+16.4 +3.7 43 +17 +17 1008.9 777.0 +15.0
03 18.08 ЮЗ 4 50 км 9/6 600 м
[Sc Ac lent Ci fib]
+20.7 +5.9 38 +22 +24 комфорт 1005.6 777.4
06 18.08 ЮЗ 5 50 км 9/3 1000 м
[Cu med, cong Ac As]
+22.0 +3.6 30 +22 +24 комфорт 1003.4 776.6
09 18.08 Ю 5 50 км 9/3 1000 м
[Cu med, cong As trans]
+21.8 +5.0 33 +22 +23 комфорт 1002.4 775.7
12 18.08 З 8 50 км 9/8 1000 м
[Sc Ac As]
+18.5 +5.4 42 +18 +18 1006.4 776.5 +22.6

 

Местоположение метеостанции Амарбуйантайан (Монголия): широта 44.62 долгота 98.70 высота над уровнем моря 2103 м.

В архиве по умолчанию представлена погода в Амарбуйантайане за последнюю неделю. Архивные данные за месяц целиком и за предыдущие месяцы, начиная с января 2011 года, Вы можете получить, выбрав интересующий диапазон дат из раскрывающегося списка и нажав кнопку "Ввод!".


*Определитесь, кто Вы:
робот инопланетянин человек

Внимание! Время в таблицах - всемирное. Для получения местного времени необходимо прибавить поправку, которая равна 8 ч.

Смотрите также архив погоды в соседних городах и на ближайших метеорологических станциях:

Погода в Эрдэни (Монголия) (94 км)
Погода в Шинэ Уса (Монголия) (227 км)
Погода в Баянхонгоре (Монголия) (228 км)
Погода в Баянбулаге (Монголия) (250 км)
Погода в Галууте (Монголия) (257 км)
Погода в Богде (Монголия) (274 км)
Погода в Алтае (Монголия) (275 км)
Погода в Наомаоху (Синьцзян-Уйгурский автономный район, Китай) (307 км)
Погода в Мазонг Шанчжэнь (Ганьсу, Китай) (342 км)
Погода в Эдзин-Ци (Внутренняя Монголия, Китай) (353 км)

Пояснения к столбцам:

Ветер - указаны скорость ветра в м/с - средняя за 10 мин, порывы в срок и между сроками (в фигурных скобках) и направление, откуда дует ветер: С - северный, СВ - северо-восточный, В - восточный, ЮВ - юго-восточный, Ю - южный, ЮЗ - юго-западный, З - западный, СЗ - северо-западный.
Видимость - горизонтальная дальность видимости в метрах или километрах. При видимости от 1 до 10 км при отсутствии осадков обычно наблюдается дымка, при ухудшении видимости до 1 км и менее - туман. В сухую погоду видимость может ухудшаться дымом, пылью или мглою.
Явления - указаны атмосферные явления, наблюдавшиеся в срок или в последний час перед сроком; фигурными скобками обозначены явления, наблюдавшиеся между сроками (за 1-3 часа до срока); квадратными скобками обозначены град или гололедные отложения с указанием их диаметра в мм.
Облачность - указаны через наклонную черту общая и нижняя облачность в баллах и высота нижней границы облаков в метрах; квадратными скобками обозначены формы облаков: Ci - перистые, Cs - перисто-слоистые, Cc - перисто-кучевые, Ac - высококучевые, As - высокослоистые, Sc - слоисто-кучевые, Ns - слоисто-дождевые, Cu - кучевые, Cb - кучево-дождевые. Подробнее классификацию облаков см. в Атласе облаков (PDF).
T - Температура воздуха - температура, измеренная на высоте 2 м над землей.
Td - Температура точки росы - температура, при понижении до которой содержащийся в воздухе водяной пар достигнет насыщения.
f - Относительная влажность воздуха - влажноcть воздуха, измеренная на высоте 2 м над землей.
Te - Эффективная температура - температура, которую ощущает одетый по сезону человек в тени. Характеристика душности погоды. При расчете учитывается влияние влажности воздуха и скорости ветра на теплоощущения человека.
Tes - Эффективная температура на солнце - температура, которую ощущает человек, с поправкой на солнечный нагрев. Характеристика знойности погоды. Зависит от высоты солнца над горизонтом, облачности и скорости ветра. Ночью, в пасмурную погоду, а также при ветре 12 м/с и более поправка равна нулю.
P - Атмосферное давление - приведенное к уровню моря атмосферное давление.
Po - Атмосферное давление - измеренное на уровне метеостанции атмосферное давление.
Tmin - Минимальная температура - минимум температуры воздуха на высоте 2 м над землей.
Tmax - Максимальная температура - максимум температуры воздуха на высоте 2 м над землей.
R - Количество осадков - Количество выпавших осадков за период времени, мм. При наведении курсора мыши на число - период времени, за который выпало указанное количество осадков.
R24 - Количество осадков - Количество выпавших осадков за 24 часа, мм.
S - Снежный покров - Высота снежного покрова, см. При наведении курсора мыши на число - состояние снежного покрова и степень покрытия местности в баллах.